Location: Nelson
(41.2830°S, 173.2830°E)
Time: 18:07:15
(UTC+12:00)

Cosmos 2219 Rocket - Pass Details

Date: 14 May 2021
Orbit: 827 x 847 km, 71.0° (Epoch: 19 June)

Event Time Altitude Azimuth Distance (km) Brightness Sun altitude
Rises 17:43:37 0° 337° (NNW) 3,374 6.1 -5.1°
Reaches altitude 10° 17:46:03 10° 336° (NNW) 2,445 5.3 -5.5°
Maximum altitude 17:51:40 86° 247° (WSW) 847 2.3 -6.5°
Drops below altitude 10° 17:57:21 10° 157° (SSE) 2,465 4.2 -7.5°
Sets 17:59:48 0° 156° (SSE) 3,404 4.9 -8.0°
